Satellite: CO-58
Catalog number: 28895
Epoch time:      07143.64772871
Element set:    0734
Inclination:      098.1354 deg
RA of node:       040.9783 deg
Eccentricity:    0.0017854
Arg of perigee:   185.4023 deg
Mean anomaly:     174.7000 deg
Mean motion:   14.59552052 rev/day
Decay rate:       2.38e-06 rev/day^2
Epoch rev:           08351
Checksum:              322

Satellite: NCUBE2
Catalog number: 28897
Epoch time:      07144.27364155
Element set:     259
Inclination:      098.1338 deg
RA of node:       041.5509 deg
Eccentricity:    0.0016997
Arg of perigee:   185.2502 deg
Mean anomaly:     174.8519 deg
Mean motion:   14.59713733 rev/day
Decay rate:       1.49e-06 rev/day^2
Epoch rev:            7588
Checksum:              341

Satellite: NMARS
Catalog number: 29662
Epoch time:      07126.39603970
Element set:     263
Inclination:      051.6121 deg
RA of node:       302.3682 deg
Eccentricity:    0.0004459
Arg of perigee:   252.1654 deg
Mean anomaly:     110.7411 deg
Mean motion:   16.47981436 rev/day
Decay rate:   7.031946e-02 rev/day^2
Epoch rev:            2165
Checksum:              289

Satellite: FCAL
Catalog number: 29667
Epoch time:      07144.41190552
Element set:     147
Inclination:      051.6328 deg
RA of node:       218.9101 deg
Eccentricity:    0.0013850
Arg of perigee:   254.3184 deg
Mean anomaly:     105.6294 deg
Mean motion:   15.87350907 rev/day
Decay rate:     1.9714e-04 rev/day^2
Epoch rev:            2422
Checksum:              287

Satellite: FALCON
Catalog number: 30776
Epoch time:      07144.80038395
Element set:      58
Inclination:      035.4348 deg
RA of node:       354.4344 deg
Eccentricity:    0.0001923
Arg of perigee:   283.1471 deg
Mean anomaly:     076.9030 deg
Mean motion:   15.02707000 rev/day
Decay rate:       3.23e-06 rev/day^2
Epoch rev:            1153
Checksum:              257

Satellite: MAST
Catalog number: 31126
Epoch time:      07143.74844914
Element set:      39
Inclination:      098.0833 deg
RA of node:       217.7197 deg
Eccentricity:    0.0096158
Arg of perigee:   101.0470 deg
Mean anomaly:     260.1512 deg
Mean motion:   14.53341359 rev/day
Decay rate:       3.95e-06 rev/day^2
Epoch rev:             530
Checksum:              277

Satellite: CAPE1
Catalog number: 31130
Epoch time:      07143.71690970
Element set:    0029
Inclination:      098.0840 deg
RA of node:       217.6049 deg
Eccentricity:    0.0104301
Arg of perigee:   101.3192 deg
Mean anomaly:     259.9737 deg
Mean motion:   14.51851759 rev/day
Decay rate:       1.40e-06 rev/day^2
Epoch rev:           00506
Checksum:              271

/EX





More information about the Keps mailing list